Home   Weather   Horsens   Past weeks

Flag for Denmark Past Weather in Horsens, Denmark — Yesterday and Last 2 Weeks

52 °F

Passing clouds.

Feels Like: 47 °F
Forecast: 47 / 53 °F
Wind: 14 mph from West

Location: Billund Lufthavn

Current Time: Oct 28, 2016 at 10:40:41 AM

Latest Report: Oct 28, 2016 at 10:20 AM

Visibility: N/A

Pressure: 30.15 "Hg

Humidity: 88%

Dew Point: 48 °F

Location of HorsensLocation

Past Weather in Horsens — Graph


Horsens Temperature Yesterday

Maximum temperature yesterday: 57 °F (at 1:20 PM)
Minimum temperature yesterday: 48 °F (at 12:20 AM)
Average temperature yesterday: 53 °F

High & Low Weather Summary for the Past Weeks

High57 °F (Oct 27, 1:20 PM)100% (Oct 13, 9:20 AM)30.36 "Hg (Oct 13, 9:20 AM)
Low30 °F (Oct 25, 6:20 AM)62% (Oct 14, 1:50 PM)29.89 "Hg (Oct 19, 12:20 AM)
Average47 °F93%30.10 "Hg
* Reported Oct 13 9:20 AM — Oct 28 9:20 AM, Horsens, Weather by CustomWeather, © 2016

Note: Actual official high and low records may vary slightly from our data, if they occured in-between our weather recording intervals... More about our weather records


Horsens Weather History for the Previous 24 Hours

Scroll right to see more
Time TempWeatherWind HumidityBarometerVisibility
9:20 AM
Fri, Oct 28
52 °FPartly sunny.13 mph94%30.12 "HgN/A
8:50 AM52 °FPartly sunny.14 mph94%30.09 "HgN/A
8:20 AM54 °FPassing clouds.18 mph100%30.07 "Hg3 mi
7:50 AM54 °FPassing clouds.18 mph100%30.07 "Hg3 mi
7:20 AM54 °FLight rain. Passing clouds.18 mph100%30.07 "Hg2 mi
6:50 AM54 °FSprinkles. Fog.17 mph100%30.07 "Hg2 mi
6:20 AM54 °FLow clouds.16 mph100%30.07 "Hg4 mi
5:50 AM54 °FLow clouds.18 mph100%30.07 "Hg4 mi
5:20 AM54 °FSprinkles. Fog.17 mph100%30.07 "Hg1 mi
4:50 AM55 °FOvercast.17 mph88%30.07 "HgN/A
4:20 AM55 °FDrizzle. Overcast.18 mph88%30.09 "HgN/A
3:50 AM55 °FSprinkles. Overcast.17 mph88%30.09 "Hg5 mi
3:20 AM55 °FSprinkles. Overcast.16 mph88%30.09 "HgN/A
2:50 AM55 °FDrizzle. Overcast.16 mph88%30.12 "HgN/A
2:20 AM55 °FOvercast.15 mph88%30.12 "HgN/A
1:50 AM54 °FOvercast.15 mph94%30.12 "HgN/A
1:20 AM54 °FOvercast.16 mph94%30.12 "HgN/A
12:50 AM54 °FMostly cloudy.15 mph94%30.12 "HgN/A
12:20 AM54 °FMostly cloudy.14 mph88%30.15 "HgN/A
11:50 PM
Thu, Oct 27
54 °FOvercast.14 mph88%30.15 "HgN/A
11:20 PM54 °FOvercast.14 mph88%30.15 "HgN/A
10:50 PM54 °FMostly cloudy.15 mph88%30.15 "HgN/A
10:20 PM54 °FPassing clouds.12 mph88%30.18 "HgN/A
9:50 PM54 °FOvercast.12 mph88%30.18 "HgN/A
9:20 PM54 °FOvercast.12 mph88%30.18 "HgN/A
8:53 PM54 °FPassing clouds.10 mph88%30.18 "HgN/A
8:20 PM54 °FSprinkles. Overcast.12 mph94%30.21 "Hg6 mi
7:50 PM54 °FOvercast.12 mph94%30.21 "HgN/A
7:20 PM54 °FOvercast.12 mph94%30.21 "HgN/A
6:50 PM54 °FOvercast.14 mph94%30.21 "HgN/A
6:20 PM54 °FOvercast.13 mph94%30.21 "HgN/A
5:51 PM54 °FPartly sunny.10 mph94%30.21 "HgN/A
5:20 PM54 °FOvercast.10 mph94%30.24 "HgN/A
4:50 PM54 °FBroken clouds.10 mph88%30.24 "HgN/A
4:20 PM55 °FPartly sunny.12 mph82%30.24 "HgN/A
3:50 PM55 °FOvercast.14 mph82%30.24 "HgN/A
3:20 PM55 °FPartly sunny.13 mph82%30.24 "HgN/A
2:50 PM55 °FPartly sunny.10 mph82%30.24 "HgN/A
2:20 PM55 °FPartly sunny.16 mph77%30.27 "HgN/A
1:50 PM55 °FPartly sunny.16 mph77%30.27 "HgN/A
1:20 PM57 °FPartly sunny.15 mph77%30.27 "HgN/A
12:50 PM55 °FScattered clouds.12 mph88%30.27 "HgN/A
12:20 PM55 °FPartly sunny.12 mph88%30.27 "HgN/A
11:50 AM54 °FScattered clouds.12 mph94%30.27 "HgN/A
11:20 AM54 °FScattered clouds.8 mph88%30.27 "HgN/A
10:50 AM52 °FScattered clouds.7 mph94%30.27 "HgN/A
10:20 AM52 °FCool.7 mph94%30.27 "HgN/A
Weather by CustomWeather, © 2016

See weather overviewHow to use our weather pages